User: anonymous   Login
Location: Dackenheim
(49.5215°N, 8.1854°E)
Time: 22:26:43
(UTC+00:00)
Language:

DX 1 - Orbit

View from above orbital plane
View from above orbital plane
View from above satellite
View from above satellite

Ground track
Ground track

The orbit is defined by the following mean orbital elements,

1 40071U          26073.59510066 +.00000000 +00000-0 +60773-4 0 00002
2 40071  98.3759  29.6395 0006119 212.6110 147.4728 14.89645253    09
Epoch (UTC): 14 March 2026 14:16:56
Eccentricity: 0.0006119
inclination: 98.3759°
perigee height: 595 km
apogee height: 603 km
right ascension of ascending node: 29.6395°
argument of perigee: 212.6110°
revolutions per day: 14.89645253
mean anomaly at epoch: 147.4728°

The dashed part of the orbit path shows where the satellite is in the earth's shadow,  

DLR